Regional Weather Roundup
Issued by NWS

Home | Current Version | Previous Version | Text Only | Print | Product List | Glossary On
Versions: 1 2 3 4 5 6 7 8 9 10 11 12 13 14 15 16 17 18 19 20 21 22 23 24 25 26 27 28 29 30 31 32 33 34 35 36 37 38 39 40 41 42 43 44 45 46 47 48 49 50
000
ASUS43 KFSD 230902
RWRSD

WEATHER ROUNDUP FOR SOUTH DAKOTA
NATIONAL WEATHER SERVICE SIOUX FALLS SD
400 AM CDT TUE SEP 23 2014

NOTE: "FAIR" INDICATES FEW OR NO CLOUDS BELOW 12,000 FEET WITH NO
SIGNIFICANT WEATHER AND/OR OBSTRUCTIONS TO VISIBILITY.


SDZ001>005-009-010-012>017-231000-
NORTHWEST AND NORTH CENTRAL SOUTH DAKOTA

CITY           SKY/WX    TMP DP  RH WIND       PRES   REMARKS
FAITH            N/A     59  56  89 S18       29.89F
MOBRIDGE       PTCLDY    63  56  78 SE15      29.91F
$$

SDZ012>016-024>037-041>051-057-063-072>074-231000-
SOUTHWEST AND SOUTH CENTRAL SOUTH DAKOTA

CITY           SKY/WX    TMP DP  RH WIND       PRES   REMARKS
RAPID CTY ARPT MOCLDY    57  55  93 S7        29.90F
PIERRE         CLOUDY    62  54  74 SE15      29.95S
CUSTER         CLOUDY    52  47  83 CALM      30.01F
ELLSWORTH AFB  CLOUDY    59  56  88 W5        29.90F
PHILIP         MOCLDY    56  52  86 E7        29.91F
PINE RIDGE     PTCLDY    57  52  83 SW8       29.93F
WINNER         CLOUDY    61  53  75 S18G29    29.97F
$$

SDZ004>011-016>023-039-040-231000-
NORTHEAST SOUTH DAKOTA

CITY           SKY/WX    TMP DP  RH WIND       PRES   REMARKS
ABERDEEN       MOCLDY    60  51  72 S12       30.01F
WATERTOWN      CLOUDY    54  48  80 S14       30.06F
SISSETON         N/A     52  50  93 SE8       30.05S
$$

SDZ017-020-022-023-036>040-048>070-231000-
SOUTHEAST SOUTH DAKOTA

CITY           SKY/WX    TMP DP  RH WIND       PRES   REMARKS
SIOUX FALLS    CLOUDY    60  50  69 S8        30.11S
HURON          CLOUDY    63  52  67 S10G18    30.03F
CHAMBERLAIN    CLOUDY    61  55  79 SE15G21   30.00F
MITCHELL       CLOUDY    62  54  74 S9        30.06F
YANKTON        CLOUDY    57  52  82 CALM      30.11S
$$

ABBREVIATIONS USED IN REMARKS
   TC - TEMPERATURE IN CELSIUS
  WCI - WIND CHILL INDEX
   HX - HEAT INDEX
  VSB - VISIBILITY



USA.gov is the U.S. government's official web portal to all federal, state and local government web resources and services.